| time (UTC) | temp F | wind direction | speed knots | gust knots | rain 1hr in | rain 24hr in | rain mn in | humidity % | barometer mb |
| 20260504202548 | 72 | 360 | 4.3 | 11.3 | 0.00 | 0.00 | 0.00 | 39 | 1008.6 |
| 20260504202049 | 72 | 360 | 1.7 | 13.0 | 0.00 | 0.00 | 0.00 | 39 | 1008.7 |
| 20260504201549 | 71 | 360 | 4.3 | 11.3 | 0.00 | 0.00 | 0.00 | 40 | 1008.9 |
| 20260504201046 | 71 | 222 | 4.3 | 13.0 | 0.00 | 0.00 | 0.00 | 39 | 1009.0 |
| 20260504200545 | 71 | 189 | 1.7 | 13.9 | 0.00 | 0.00 | 0.00 | 40 | 1009.0 |
| 20260504200055 | 72 | 360 | 2.6 | 9.6 | 0.00 | 0.00 | 0.00 | 38 | 1009.1 |
| 20260504195544 | 72 | 360 | 1.7 | 10.4 | 0.00 | 0.00 | 0.00 | 40 | 1009.2 |
| 20260504195043 | 71 | 179 | 0.9 | 10.4 | 0.00 | 0.00 | 0.00 | 41 | 1009.2 |
| 20260504194543 | 71 | 237 | 3.5 | 12.2 | 0.00 | 0.00 | 0.00 | 40 | 1009.2 |
| 20260504194041 | 71 | 360 | 2.6 | 12.2 | 0.00 | 0.00 | 0.00 | 40 | 1009.5 |
| 20260504193541 | 71 | 360 | 2.6 | 10.4 | 0.00 | 0.00 | 0.00 | 39 | 1009.5 |
| 20260504193043 | 71 | 360 | 1.7 | 9.6 | 0.00 | 0.00 | 0.00 | 40 | 1009.6 |
| 20260504192538 | 71 | 238 | 1.7 | 19.1 | 0.00 | 0.00 | 0.00 | 39 | 1009.7 |
| 20260504192038 | 71 | 360 | 4.3 | 16.5 | 0.00 | 0.00 | 0.00 | 39 | 1009.9 |
| 20260504191539 | 71 | 360 | 5.2 | 15.6 | 0.00 | 0.00 | 0.00 | 40 | 1009.9 |
| 20260504191039 | 71 | 360 | 0.9 | 13.9 | 0.00 | 0.00 | 0.00 | 41 | 1009.8 |
| 20260504190537 | 71 | 253 | 7.0 | 13.9 | 0.00 | 0.00 | 0.00 | 39 | 1010.0 |
| 20260504190035 | 70 | 228 | 2.6 | 13.0 | 0.00 | 0.00 | 0.00 | 40 | 1010.0 |
| 20260504185534 | 70 | 221 | 3.5 | 15.6 | 0.00 | 0.00 | 0.00 | 40 | 1010.1 |
| 20260504185033 | 70 | 206 | 6.1 | 15.6 | 0.00 | 0.00 | 0.00 | 40 | 1010.3 |
| 20260504184538 | 70 | 360 | 0.9 | 18.2 | 0.00 | 0.00 | 0.00 | 40 | 1010.3 |
| 20260504184035 | 69 | 260 | 7.8 | 18.2 | 0.00 | 0.00 | 0.00 | 40 | 1010.5 |
| 20260504183532 | 69 | 214 | 5.2 | 15.6 | 0.00 | 0.00 | 0.00 | 40 | 1010.5 |
| 20260504183036 | 69 | 209 | 3.5 | 12.2 | 0.00 | 0.00 | 0.00 | 41 | 1010.5 |
| 20260504182529 | 69 | 360 | 0.9 | 8.7 | 0.00 | 0.00 | 0.00 | 40 | 1010.6 |
| 20260504182029 | 69 | 360 | 1.7 | 10.4 | 0.00 | 0.00 | 0.00 | 41 | 1010.6 |
| 20260504181531 | 69 | 274 | 4.3 | 10.4 | 0.00 | 0.00 | 0.00 | 42 | 1010.7 |
| 20260504181028 | 69 | 360 | 1.7 | 13.9 | 0.00 | 0.00 | 0.00 | 39 | 1010.8 |
| 20260504180527 | 69 | 196 | 1.7 | 13.9 | 0.00 | 0.00 | 0.00 | 39 | 1010.8 |
| 20260504180027 | 69 | 360 | 0.9 | 7.0 | 0.00 | 0.00 | 0.00 | 41 | 1010.9 |
| 20260504175525 | 69 | 232 | 0.9 | 8.7 | 0.00 | 0.00 | 0.00 | 39 | 1011.0 |
| 20260504175025 | 68 | 269 | 0.9 | 8.7 | 0.00 | 0.00 | 0.00 | 39 | 1011.1 |
| 20260504174525 | 69 | 360 | 1.7 | 7.8 | 0.00 | 0.00 | 0.00 | 40 | 1011.1 |
| 20260504174024 | 68 | 187 | 0.0 | 12.2 | 0.00 | 0.00 | 0.00 | 42 | 1011.1 |
| 20260504173526 | 68 | 226 | 4.3 | 18.2 | 0.00 | 0.00 | 0.00 | 40 | 1011.2 |
| 20260504173022 | 68 | 196 | 7.0 | 18.2 | 0.00 | 0.00 | 0.00 | 39 | 1011.2 |
| 20260504172523 | 68 | 360 | 2.6 | 12.2 | 0.00 | 0.00 | 0.00 | 40 | 1011.2 |
| 20260504172022 | 67 | 313 | 6.1 | 20.9 | 0.00 | 0.00 | 0.00 | 40 | 1011.2 |
| 20260504171521 | 67 | 360 | 4.3 | 13.9 | 0.00 | 0.00 | 0.00 | 42 | 1011.3 |
| 20260504171020 | 67 | 238 | 0.9 | 14.8 | 0.00 | 0.00 | 0.00 | 41 | 1011.5 |
| 20260504170519 | 67 | 360 | 5.2 | 11.3 | 0.00 | 0.00 | 0.00 | 40 | 1011.7 |
| 20260504151058 | 63 | 177 | 0.0 | 9.6 | 0.00 | 0.00 | 0.00 | 42 | 1013.2 |
| 20260504150558 | 62 | 360 | 0.9 | 9.6 | 0.00 | 0.00 | 0.00 | 42 | 1013.2 |
| 20260504141046 | 59 | 209 | 0.9 | 5.2 | 0.00 | 0.00 | 0.00 | 45 | 1013.7 |
| 20260504140546 | 59 | 177 | 1.7 | 5.2 | 0.00 | 0.00 | 0.00 | 44 | 1013.7 |
| 20260504130533 | 54 | 122 | 0.0 | 0.0 | 0.00 | 0.00 | 0.00 | 54 | 1014.2 |
| 20260504110520 | 46 | 254 | 0.0 | 0.0 | 0.00 | 0.00 | 0.00 | 68 | 1014.5 |
| 20260504100515 | 42 | 254 | 0.0 | 0.0 | 0.00 | 0.00 | 0.00 | 73 | 1014.7 |
| 20260504082004 | 44 | 254 | 0.0 | 0.0 | 0.00 | 0.00 | 0.00 | 68 | 1014.8 |
| 20260504081504 | 44 | 254 | 0.0 | 0.0 | 0.00 | 0.00 | 0.00 | 70 | 1014.9 |
| 20260504081003 | 44 | 254 | 0.0 | 0.0 | 0.00 | 0.00 | 0.00 | 69 | 1014.9 |
| 20260504080505 | 44 | 254 | 0.0 | 0.0 | 0.00 | 0.00 | 0.00 | 68 | 1014.9 |
| 20260504050541 | 50 | 267 | 4.3 | 7.8 | 0.00 | 0.00 | 0.00 | 51 | 1014.8 |
| 20260504045540 | 50 | 263 | 5.2 | 7.0 | 0.00 | 0.00 | 0.00 | 51 | 1014.9 |
| 20260504045039 | 50 | 261 | 4.3 | 7.0 | 0.00 | 0.00 | 0.00 | 53 | 1014.9 |
| 20260504044543 | 50 | 262 | 3.5 | 6.1 | 0.00 | 0.00 | 0.00 | 53 | 1014.9 |
| 20260504044039 | 50 | 263 | 3.5 | 6.1 | 0.00 | 0.00 | 0.00 | 52 | 1014.9 |
| 20260504043538 | 50 | 269 | 3.5 | 6.1 | 0.00 | 0.00 | 0.00 | 52 | 1014.9 |
| 20260504043049 | 50 | 271 | 3.5 | 6.1 | 0.00 | 0.00 | 0.00 | 52 | 1014.8 |
| 20260504042535 | 50 | 277 | 4.3 | 6.1 | 0.00 | 0.00 | 0.00 | 52 | 1014.8 |
| 20260504042035 | 50 | 273 | 4.3 | 6.1 | 0.00 | 0.00 | 0.00 | 52 | 1014.8 |
| 20260504041536 | 50 | 262 | 2.6 | 5.2 | 0.00 | 0.00 | 0.00 | 52 | 1014.8 |
| 20260504041034 | 50 | 257 | 2.6 | 5.2 | 0.00 | 0.00 | 0.00 | 52 | 1014.8 |
| 20260504040534 | 51 | 257 | 2.6 | 6.1 | 0.00 | 0.00 | 0.00 | 51 | 1014.8 |
| 20260504040033 | 51 | 260 | 3.5 | 7.0 | 0.00 | 0.00 | 0.00 | 49 | 1014.7 |
| 20260504035534 | 51 | 275 | 4.3 | 7.0 | 0.00 | 0.00 | 0.00 | 49 | 1014.7 |
| 20260504035034 | 51 | 262 | 4.3 | 6.1 | 0.00 | 0.00 | 0.00 | 48 | 1014.8 |
| 20260504034540 | 52 | 257 | 2.6 | 6.1 | 0.00 | 0.00 | 0.00 | 48 | 1014.7 |
| 20260504034034 | 52 | 263 | 3.5 | 6.1 | 0.00 | 0.00 | 0.00 | 48 | 1014.6 |
| 20260504033534 | 52 | 262 | 4.3 | 6.1 | 0.00 | 0.00 | 0.00 | 47 | 1014.7 |
| 20260504033032 | 52 | 259 | 3.5 | 6.1 | 0.00 | 0.00 | 0.00 | 47 | 1014.6 |
| 20260504032532 | 52 | 246 | 1.7 | 6.1 | 0.00 | 0.00 | 0.00 | 48 | 1014.7 |
| 20260504032032 | 52 | 250 | 2.6 | 7.0 | 0.00 | 0.00 | 0.00 | 47 | 1014.6 |
| 20260504031537 | 53 | 261 | 4.3 | 7.0 | 0.00 | 0.00 | 0.00 | 47 | 1014.5 |
| 20260504031032 | 53 | 254 | 2.6 | 6.1 | 0.00 | 0.00 | 0.00 | 47 | 1014.4 |
| 20260504030532 | 53 | 258 | 3.5 | 6.1 | 0.00 | 0.00 | 0.00 | 47 | 1014.4 |
| 20260504030039 | 53 | 248 | 2.6 | 4.3 | 0.00 | 0.00 | 0.00 | 47 | 1014.4 |
| 20260504025532 | 53 | 260 | 2.6 | 5.2 | 0.00 | 0.00 | 0.00 | 47 | 1014.4 |
| 20260504025032 | 53 | 262 | 3.5 | 5.2 | 0.00 | 0.00 | 0.00 | 46 | 1014.4 |
| 20260504024535 | 53 | 262 | 3.5 | 5.2 | 0.00 | 0.00 | 0.00 | 46 | 1014.4 |
| 20260504024031 | 53 | 258 | 2.6 | 5.2 | 0.00 | 0.00 | 0.00 | 45 | 1014.4 |
| 20260504023531 | 54 | 253 | 2.6 | 4.3 | 0.00 | 0.00 | 0.00 | 44 | 1014.4 |
| 20260504023031 | 54 | 252 | 2.6 | 4.3 | 0.00 | 0.00 | 0.00 | 45 | 1014.5 |
| 20260504022531 | 54 | 256 | 1.7 | 3.5 | 0.00 | 0.00 | 0.00 | 45 | 1014.4 |
| 20260504022031 | 54 | 256 | 1.7 | 3.5 | 0.00 | 0.00 | 0.00 | 45 | 1014.4 |
| 20260504021540 | 54 | 258 | 2.6 | 5.2 | 0.00 | 0.00 | 0.00 | 44 | 1014.4 |
| 20260504021030 | 54 | 257 | 2.6 | 4.3 | 0.00 | 0.00 | 0.00 | 44 | 1014.4 |
| 20260504020530 | 54 | 243 | 1.7 | 4.3 | 0.00 | 0.00 | 0.00 | 44 | 1014.4 |
| 20260504020036 | 54 | 244 | 1.7 | 4.3 | 0.00 | 0.00 | 0.00 | 44 | 1014.4 |
| 20260504015530 | 54 | 250 | 2.6 | 4.3 | 0.00 | 0.00 | 0.00 | 44 | 1014.4 |
| 20260504015030 | 54 | 252 | 1.7 | 3.5 | 0.00 | 0.00 | 0.00 | 43 | 1014.4 |
| 20260504014530 | 55 | 259 | 2.6 | 5.2 | 0.00 | 0.00 | 0.00 | 43 | 1014.3 |
| 20260504014030 | 55 | 259 | 2.6 | 5.2 | 0.00 | 0.00 | 0.00 | 43 | 1014.3 |
| 20260504013532 | 55 | 258 | 2.6 | 5.2 | 0.00 | 0.00 | 0.00 | 42 | 1014.3 |
| 20260504013035 | 55 | 258 | 2.6 | 5.2 | 0.00 | 0.00 | 0.00 | 42 | 1014.2 |
| 20260504012529 | 55 | 257 | 2.6 | 6.1 | 0.00 | 0.00 | 0.00 | 41 | 1014.2 |
| 20260504012029 | 56 | 258 | 3.5 | 6.1 | 0.00 | 0.00 | 0.00 | 41 | 1014.2 |
| 20260504011529 | 56 | 250 | 2.6 | 4.3 | 0.00 | 0.00 | 0.00 | 41 | 1014.2 |
| 20260504011032 | 56 | 252 | 0.0 | 3.5 | 0.00 | 0.00 | 0.00 | 41 | 1014.1 |
| 20260504010528 | 56 | 259 | 0.0 | 2.6 | 0.00 | 0.00 | 0.00 | 41 | 1014.0 |
| 20260504010029 | 56 | 259 | 0.9 | 3.5 | 0.00 | 0.00 | 0.00 | 41 | 1014.1 |
| 20260504005530 | 56 | 259 | 1.7 | 3.5 | 0.00 | 0.00 | 0.00 | 40 | 1014.1 |
| 20260504005029 | 57 | 259 | 0.9 | 3.5 | 0.00 | 0.00 | 0.00 | 40 | 1014.1 |
| 20260504004539 | 57 | 263 | 1.7 | 7.0 | 0.00 | 0.00 | 0.00 | 39 | 1014.1 |
| 20260504004030 | 57 | 264 | 2.6 | 7.0 | 0.00 | 0.00 | 0.00 | 38 | 1014.0 |
| 20260504003529 | 57 | 277 | 2.6 | 6.1 | 0.00 | 0.00 | 0.00 | 38 | 1013.9 |
| 20260504003027 | 57 | 274 | 2.6 | 7.0 | 0.00 | 0.00 | 0.00 | 38 | 1013.8 |
| 20260504002527 | 57 | 275 | 4.3 | 7.8 | 0.00 | 0.00 | 0.00 | 37 | 1013.8 |
| 20260504002029 | 58 | 275 | 5.2 | 8.7 | 0.00 | 0.00 | 0.00 | 37 | 1013.7 |
| 20260504001534 | 58 | 277 | 5.2 | 8.7 | 0.00 | 0.00 | 0.00 | 37 | 1013.7 |
| 20260504001028 | 58 | 267 | 4.3 | 10.4 | 0.00 | 0.00 | 0.00 | 37 | 1013.7 |
| 20260504000527 | 58 | 276 | 7.0 | 12.2 | 0.00 | 0.00 | 0.00 | 36 | 1013.6 |
| 20260504000028 | 58 | 288 | 5.2 | 12.2 | 0.00 | 0.00 | 0.00 | 36 | 1013.5 |
| 20260503235527 | 58 | 287 | 6.1 | 10.4 | 0.00 | 0.00 | 0.00 | 36 | 1013.5 |
| 20260503235027 | 59 | 265 | 6.1 | 10.4 | 0.00 | 0.00 | 0.00 | 35 | 1013.4 |
| 20260503234528 | 59 | 290 | 6.1 | 9.6 | 0.00 | 0.00 | 0.00 | 35 | 1013.3 |
| 20260503234027 | 59 | 275 | 6.1 | 12.2 | 0.00 | 0.00 | 0.00 | 35 | 1013.3 |
| 20260503233526 | 59 | 263 | 7.8 | 12.2 | 0.00 | 0.00 | 0.00 | 34 | 1013.3 |
| 20260503233026 | 59 | 259 | 7.8 | 10.4 | 0.00 | 0.00 | 0.00 | 35 | 1013.3 |
| 20260503232526 | 59 | 248 | 7.0 | 11.3 | 0.00 | 0.00 | 0.00 | 34 | 1013.3 |
| 20260503232026 | 59 | 284 | 8.7 | 13.9 | 0.00 | 0.00 | 0.00 | 34 | 1013.3 |
| 20260503231526 | 59 | 296 | 9.6 | 14.8 | 0.00 | 0.00 | 0.00 | 34 | 1013.3 |
| 20260503231027 | 59 | 293 | 8.7 | 14.8 | 0.00 | 0.00 | 0.00 | 34 | 1013.2 |
| 20260503230525 | 59 | 283 | 7.8 | 13.9 | 0.00 | 0.00 | 0.00 | 34 | 1013.2 |
| 20260503230026 | 60 | 296 | 10.4 | 15.6 | 0.00 | 0.00 | 0.00 | 34 | 1013.2 |
| 20260503225525 | 60 | 273 | 8.7 | 15.6 | 0.00 | 0.00 | 0.00 | 34 | 1013.2 |
| 20260503225025 | 60 | 278 | 7.0 | 13.9 | 0.00 | 0.00 | 0.00 | 34 | 1013.1 |
| 20260503224525 | 60 | 289 | 7.8 | 14.8 | 0.00 | 0.00 | 0.00 | 34 | 1013.1 |
| 20260503224025 | 60 | 298 | 10.4 | 14.8 | 0.00 | 0.00 | 0.00 | 33 | 1013.1 |
| 20260503223528 | 60 | 284 | 6.1 | 13.0 | 0.00 | 0.00 | 0.00 | 35 | 1013.2 |
| 20260503223024 | 60 | 281 | 8.7 | 15.6 | 0.00 | 0.00 | 0.00 | 34 | 1013.2 |
| 20260503222523 | 60 | 290 | 10.4 | 15.6 | 0.00 | 0.00 | 0.00 | 35 | 1013.1 |
| 20260503222023 | 59 | 300 | 8.7 | 14.8 | 0.00 | 0.00 | 0.00 | 35 | 1013.2 |
| 20260503221524 | 60 | 286 | 8.7 | 14.8 | 0.00 | 0.00 | 0.00 | 34 | 1013.2 |
| 20260503221026 | 60 | 289 | 7.0 | 17.4 | 0.00 | 0.00 | 0.00 | 35 | 1013.2 |
| 20260503220626 | 60 | 274 | 8.7 | 17.4 | 0.00 | 0.00 | 0.00 | 35 | 1013.3 |
| 20260503220031 | 60 | 275 | 9.6 | 18.2 | 0.00 | 0.00 | 0.00 | 34 | 1013.3 |
| 20260503215523 | 60 | 285 | 13.0 | 18.2 | 0.00 | 0.00 | 0.00 | 34 | 1013.3 |
| 20260503215022 | 59 | 301 | 9.6 | 16.5 | 0.00 | 0.00 | 0.00 | 35 | 1013.3 |
| 20260503214532 | 59 | 265 | 10.4 | 16.5 | 0.00 | 0.00 | 0.00 | 34 | 1013.2 |
| 20260503214022 | 59 | 271 | 7.8 | 13.0 | 0.00 | 0.00 | 0.00 | 36 | 1013.2 |
| 20260503213522 | 59 | 296 | 8.7 | 16.5 | 0.00 | 0.00 | 0.00 | 34 | 1013.2 |
| 20260503213030 | 59 | 301 | 8.7 | 18.2 | 0.00 | 0.00 | 0.00 | 35 | 1013.2 |
| 20260503212521 | 59 | 280 | 12.2 | 18.2 | 0.00 | 0.00 | 0.00 | 35 | 1013.2 |
| 20260503212020 | 59 | 297 | 6.1 | 14.8 | 0.00 | 0.00 | 0.00 | 35 | 1013.1 |
| 20260503211520 | 59 | 294 | 8.7 | 13.9 | 0.00 | 0.00 | 0.00 | 35 | 1013.2 |
| 20260503211019 | 59 | 309 | 1.7 | 15.6 | 0.00 | 0.00 | 0.00 | 37 | 1013.1 |
| 20260503210519 | 59 | 285 | 9.6 | 17.4 | 0.00 | 0.00 | 0.00 | 35 | 1013.2 |
| 20260503210020 | 59 | 291 | 9.6 | 17.4 | 0.00 | 0.00 | 0.00 | 35 | 1013.2 |
| 20260503205519 | 59 | 275 | 11.3 | 17.4 | 0.00 | 0.00 | 0.00 | 35 | 1013.2 |
| 20260503205021 | 59 | 275 | 8.7 | 14.8 | 0.00 | 0.00 | 0.00 | 35 | 1013.2 |
| 20260503204526 | 59 | 288 | 7.0 | 17.4 | 0.00 | 0.00 | 0.00 | 35 | 1013.2 |
| 20260503204017 | 59 | 307 | 11.3 | 17.4 | 0.00 | 0.00 | 0.00 | 35 | 1013.2 |
| 20260503203521 | 59 | 252 | 9.6 | 14.8 | 0.00 | 0.00 | 0.00 | 35 | 1013.3 |
| 20260503203016 | 58 | 286 | 7.8 | 14.8 | 0.00 | 0.00 | 0.00 | 36 | 1013.2 |